Back to catalog

TITAN 3C TRANSTAGE DEB

AliveHEO
NORAD 34165·DEBRIS·🇺🇸 United States

Launched Dec 21, 1965 from Cape Canaveral Space Force Station

Loading…

Next Passes (next 24 hours)

TLE

FreshSource: Space-Track

Epoch: Sep 13, 2026, 19:02 UTC

1 34165U 65108CY  26256.79371373  .00003942  00000-0  91337-2 0  9993
2 34165  26.6667  85.2583 6382499 116.4252 320.9937  3.34698609160454

Track TITAN 3C TRANSTAGE DEB in real time with AllMySat

Download on the App Store